Hourly Weather Barra de Carrasco

Today, 19 June, Saturday

Time Temperature Precipitation Wind Pressure Humidity
00:00 +7°C° 0 mm 1 mps 770 mmHg 74%
01:00 +7°C° 0 mm 1 mps 770 mmHg 75%
02:00 +7°C° 0 mm 1 mps 770 mmHg 77%
03:00 +8°C° 0 mm 1 mps 770 mmHg 75%
04:00 +7°C° 0 mm 2 mps 769 mmHg 74%
05:00 +8°C° 0 mm 2 mps 769 mmHg 72%
06:00 +8°C° 0 mm 2 mps 769 mmHg 72%
07:00 +8°C° 0 mm 2 mps 770 mmHg 73%
08:00 +9°C° 0 mm 2 mps 770 mmHg 73%
09:00 +9°C° 0 mm 2 mps 770 mmHg 70%
10:00 +10°C° 0 mm 2 mps 770 mmHg 66%
11:00 +12°C° 0 mm 2 mps 769 mmHg 63%
12:00 +12°C° 0 mm 2 mps 769 mmHg 63%
13:00 +12°C° 0 mm 2 mps 768 mmHg 63%
14:00 +11°C° 0 mm 3 mps 768 mmHg 63%
15:00 +11°C° 0 mm 3 mps 768 mmHg 65%
16:00 +10°C° 0 mm 3 mps 768 mmHg 67%
17:00 +10°C° 0 mm 3 mps 768 mmHg 69%
18:00 +9°C° 0 mm 3 mps 768 mmHg 71%
19:00 +9°C° 0 mm 2 mps 768 mmHg 72%
20:00 +9°C° 0 mm 2 mps 768 mmHg 73%
21:00 +9°C° 0 mm 2 mps 768 mmHg 74%
22:00 +9°C° 0 mm 2 mps 768 mmHg 74%
23:00 +8°C° 0 mm 2 mps 768 mmHg 75%

Tomorrow, 20 June, Sunday

Time Temperature Precipitation Wind Pressure Humidity
00:00 +8°C° 0 mm 2 mps 767 mmHg 75%
01:00 +8°C° 0 mm 3 mps 767 mmHg 75%
02:00 +8°C° 0 mm 3 mps 767 mmHg 75%
03:00 +8°C° 0 mm 3 mps 767 mmHg 75%
04:00 +7°C° 0 mm 3 mps 767 mmHg 76%
05:00 +7°C° 0 mm 3 mps 767 mmHg 77%
06:00 +7°C° 0 mm 3 mps 767 mmHg 76%
07:00 +8°C° 0 mm 3 mps 767 mmHg 76%
08:00 +8°C° 0 mm 3 mps 767 mmHg 75%
09:00 +9°C° 0 mm 2 mps 767 mmHg 70%
10:00 +12°C° 0 mm 2 mps 767 mmHg 65%
11:00 +13°C° 0 mm 2 mps 767 mmHg 60%
12:00 +13°C° 0 mm 2 mps 767 mmHg 59%
13:00 +13°C° 0 mm 2 mps 767 mmHg 58%
14:00 +13°C° 0 mm 2 mps 766 mmHg 57%
15:00 +12°C° 0 mm 2 mps 766 mmHg 61%
16:00 +10°C° 0 mm 2 mps 766 mmHg 66%
17:00 +9°C° 0 mm 2 mps 766 mmHg 71%
18:00 +8°C° 0 mm 3 mps 766 mmHg 74%
19:00 +8°C° 0 mm 3 mps 766 mmHg 76%
20:00 +8°C° 0 mm 3 mps 767 mmHg 79%
21:00 +7°C° 0 mm 3 mps 767 mmHg 81%
22:00 +7°C° 0 mm 3 mps 767 mmHg 83%
23:00 +7°C° 0 mm 3 mps 766 mmHg 85%

Day after tomorrow, 21 June, Monday

Time Temperature Precipitation Wind Pressure Humidity
00:00 +5°C° 0 mm 3 mps 766 mmHg 86%
01:00 +5°C° 0 mm 3 mps 766 mmHg 87%
02:00 +6°C° 0 mm 2 mps 766 mmHg 88%
03:00 +6°C° 0 mm 2 mps 766 mmHg 89%
04:00 +6°C° 0 mm 2 mps 766 mmHg 89%
05:00 +6°C° 0 mm 2 mps 766 mmHg 90%
06:00 +6°C° 0 mm 2 mps 766 mmHg 89%
07:00 +6°C° 0 mm 2 mps 767 mmHg 87%
08:00 +7°C° 0 mm 2 mps 767 mmHg 86%
09:00 +8°C° 0 mm 2 mps 767 mmHg 80%
10:00 +10°C° 0 mm 2 mps 767 mmHg 73%
11:00 +12°C° 0 mm 3 mps 767 mmHg 67%
12:00 +13°C° 0 mm 2 mps 766 mmHg 65%
13:00 +14°C° 0 mm 2 mps 765 mmHg 63%
14:00 +14°C° 0 mm 2 mps 765 mmHg 61%
15:00 +13°C° 0 mm 2 mps 765 mmHg 67%
16:00 +12°C° 0 mm 2 mps 765 mmHg 73%
17:00 +10°C° 0 mm 2 mps 764 mmHg 79%
18:00 +10°C° 0 mm 3 mps 765 mmHg 81%
19:00 +9°C° 0 mm 3 mps 765 mmHg 83%
20:00 +9°C° 0 mm 3 mps 765 mmHg 86%
21:00 +9°C° 0 mm 3 mps 765 mmHg 87%
22:00 +8°C° 0 mm 3 mps 766 mmHg 89%
23:00 +8°C° 0 mm 3 mps 766 mmHg 91%

22 June, Tuesday

Time Temperature Precipitation Wind Pressure Humidity
00:00 +8°C° 0 mm 3 mps 766 mmHg 92%
01:00 +7°C° 0 mm 3 mps 766 mmHg 92%
02:00 +7°C° 0 mm 3 mps 766 mmHg 93%
03:00 +7°C° 0 mm 3 mps 766 mmHg 93%
04:00 +7°C° 0 mm 3 mps 766 mmHg 94%
05:00 +7°C° 0 mm 3 mps 766 mmHg 94%
06:00 +7°C° 0 mm 3 mps 766 mmHg 93%
07:00 +8°C° 0 mm 2 mps 766 mmHg 92%
08:00 +8°C° 0 mm 2 mps 766 mmHg 91%
09:00 +10°C° 0 mm 2 mps 766 mmHg 84%
10:00 +13°C° 0 mm 2 mps 767 mmHg 78%
11:00 +15°C° 0 mm 2 mps 767 mmHg 72%
12:00 +14°C° 0 mm 3 mps 766 mmHg 69%
13:00 +16°C° 0 mm 3 mps 766 mmHg 66%
14:00 +17°C° 0 mm 4 mps 765 mmHg 64%
15:00 +14°C° 0 mm 3 mps 765 mmHg 70%
16:00 +13°C° 0 mm 3 mps 765 mmHg 76%
17:00 +12°C° 0 mm 3 mps 765 mmHg 82%
18:00 +11°C° 0 mm 4 mps 765 mmHg 84%
19:00 +11°C° 0 mm 4 mps 765 mmHg 85%
20:00 +10°C° 0 mm 5 mps 765 mmHg 86%
21:00 +9°C° 0 mm 5 mps 764 mmHg 85%
22:00 +9°C° 0 mm 5 mps 764 mmHg 85%
23:00 +9°C° 0 mm 5 mps 764 mmHg 85%

23 June, Wednesday

Time Temperature Precipitation Wind Pressure Humidity
00:00 +9°C° 0 mm 5 mps 764 mmHg 87%
01:00 +8°C° 0 mm 5 mps 764 mmHg 90%
02:00 +8°C° 0 mm 5 mps 764 mmHg 92%
03:00 +8°C° 0 mm 5 mps 763 mmHg 93%
04:00 +8°C° 0 mm 5 mps 763 mmHg 93%
05:00 +8°C° 0 mm 5 mps 763 mmHg 94%
06:00 +8°C° 0 mm 5 mps 763 mmHg 93%
07:00 +9°C° 0 mm 5 mps 763 mmHg 92%
08:00 +9°C° 0 mm 5 mps 763 mmHg 92%
09:00 +12°C° 0 mm 5 mps 763 mmHg 87%
10:00 +13°C° 0 mm 5 mps 762 mmHg 82%
11:00 +15°C° 0 mm 5 mps 762 mmHg 78%
12:00 +15°C° 0 mm 4 mps 761 mmHg 79%
13:00 +15°C° 0 mm 4 mps 760 mmHg 80%
14:00 +16°C° 0 mm 3 mps 759 mmHg 81%
15:00 +15°C° 0.5 mm 4 mps 759 mmHg 85%
16:00 +14°C° 0.5 mm 4 mps 758 mmHg 90%
17:00 +14°C° 0.5 mm 4 mps 758 mmHg 95%
18:00 +14°C° 1.2 mm 4 mps 758 mmHg 95%
19:00 +13°C° 1.2 mm 4 mps 758 mmHg 96%
20:00 +13°C° 1.2 mm 4 mps 758 mmHg 97%
21:00 +13°C° 1.3 mm 4 mps 757 mmHg 98%
22:00 +13°C° 1.3 mm 4 mps 757 mmHg 98%
23:00 +13°C° 1.3 mm 5 mps 756 mmHg 98%

24 June, Thursday

Time Temperature Precipitation Wind Pressure Humidity
00:00 +13°C° 0.9 mm 4 mps 755 mmHg 98%
01:00 +13°C° 0.9 mm 3 mps 755 mmHg 98%
02:00 +14°C° 0.9 mm 2 mps 754 mmHg 98%
03:00 +13°C° 0.4 mm 3 mps 754 mmHg 98%
04:00 +13°C° 0.4 mm 4 mps 754 mmHg 98%
05:00 +13°C° 0.4 mm 5 mps 754 mmHg 98%
06:00 +13°C° 0.3 mm 6 mps 754 mmHg 97%
07:00 +13°C° 0.3 mm 6 mps 755 mmHg 96%
08:00 +12°C° 0.3 mm 7 mps 755 mmHg 95%
09:00 +12°C° 0.2 mm 7 mps 755 mmHg 95%
10:00 +12°C° 0.2 mm 8 mps 755 mmHg 95%
11:00 +12°C° 0.2 mm 8 mps 756 mmHg 95%
12:00 +12°C° 0 mm 8 mps 756 mmHg 93%
13:00 +11°C° 0 mm 7 mps 756 mmHg 92%
14:00 +11°C° 0 mm 7 mps 756 mmHg 90%
15:00 +11°C° 0 mm 6 mps 756 mmHg 89%
16:00 +11°C° 0 mm 6 mps 757 mmHg 88%
17:00 +10°C° 0 mm 5 mps 757 mmHg 87%
18:00 +10°C° 0 mm 5 mps 757 mmHg 88%
19:00 +10°C° 0 mm 5 mps 758 mmHg 90%
20:00 +11°C° 0 mm 4 mps 758 mmHg 92%
21:00 +11°C° 0 mm 4 mps 758 mmHg 92%
22:00 +9°C° 0 mm 5 mps 758 mmHg 92%
23:00 +9°C° 0 mm 5 mps 758 mmHg 91%
Show more